Voltar ao catálogo

COSMOS 1860 FUEL CORE

AtivoLEO
NORAD 18241·DEBRIS·🇷🇺 Russia

Lançado Jun 18, 1987 de Baikonur Cosmodrome

Loading…

Próximas Passagens (próximas 24 horas)

TLE

AtualizadoSource: Space-Track

Época: Sep 14, 2026, 01:02 UTC

1 18241U 87052D   26257.04365336 -.00000091  00000-0 -10479-5 0  9998
2 18241  65.0068 257.8901 0021829 131.6627 262.4971 13.88980199650966

Acompanhe COSMOS 1860 FUEL CORE em tempo real com AllMySat

Download on the App Store